Location: Broadmoor
(37.6867°N, 122.4828°W)
Time: 21:58:34
(UTC+00:00)

Meteor 1-16 Rocket - Pass Details

Date: 11 November 2024
Orbit: 789 x 906 km, 81.2° (Epoch: 13 December)

Event Time Altitude Azimuth Distance (km) Brightness Sun altitude
Rises 01:30:56 0° 244° (WSW) 3,487 9.8 -6.2°
Reaches altitude 10° 01:35:26 10° 277° (W) 2,573 8.0 -7.1°
Maximum altitude 01:37:18 11° 296° (WNW) 2,474 7.4 -7.4°
Drops below altitude 10° 01:39:11 10° 315° (NW) 2,588 7.2 -7.8°
Sets 01:43:47 0° 347° (NNW) 3,540 7.4 -8.7°
